Voltar ao catálogo

STARLINK-38076

AtivoComunicaçõesSSO
NORAD 69740·PAYLOAD·🇺🇸 United States

Lançado Jul 2, 2026 de Vandenberg Space Force Base

Loading…

Próximas Passagens (próximas 24 horas)

TLE

AtualizadoSource: CelesTrak SupGP

Época: Sep 15, 2026, 03:19 UTC

1 69740C 26150B   26258.13868056 -.00048005  00000+0 -14918-2 0  2581
2 69740  97.2852  97.1068 0001635 103.1092 204.9233 15.33429332    12

Acompanhe STARLINK-38076 em tempo real com AllMySat

Download on the App Store